Date String (YYYY-MM-DD hh:mm:ss) UTC,Instrument flags,Ambient pressure (hPa),Sample flow (lpm),Bypass flow (lpm),Sample temperature (°C),Ambient temperature (°C),ASC tube jacket temperature (°C),LED temperature (°C),Box temperature (°C),Sample RH (%),Span deviation,Mass concentration (μg/m³),Mass concentration (μg/m³),Mass concentration (μg/m³)
DateTimeUTC,F1_M11,P_M11,Q1_M11,Q2_M11,T1_M11,T2_M11,T3_M11,T4_M11,T5_M11,U1_M11,ZSPAN_M11,X0_M11,X2_M11,X1_M11
2022-01-18 03:00:00,,0821.1,5.00,0.00,25.8,25.0,00.0,34.9,27.6,07.4,0000.0,0010.92,0004.63,0004.06
2022-01-18 03:01:00,,0821.1,4.98,0.00,25.8,25.0,00.0,34.8,27.6,07.5,0000.0,0010.64,0004.81,0004.20
2022-01-18 03:02:00,,0821.1,5.01,0.00,25.8,25.0,00.0,34.8,27.6,07.6,0000.0,0010.59,0004.95,0004.36
2022-01-18 03:03:00,,0821.1,5.01,0.00,25.8,25.0,00.0,34.9,27.6,07.6,0000.0,0011.02,0005.11,0004.51
2022-01-18 03:04:00,,0821.1,5.00,0.00,25.8,25.0,00.0,34.8,27.6,07.5,0000.0,0011.26,0005.23,0004.62
2022-01-18 03:05:00,,0821.2,4.99,0.00,25.8,25.0,00.0,34.8,27.6,07.4,0000.0,0011.82,0005.33,0004.71
2022-01-18 03:06:00,,0821.1,5.02,0.00,25.8,25.0,00.0,34.8,27.6,07.3,0000.0,0011.44,0005.36,0004.75
2022-01-18 03:07:00,,0821.1,5.00,0.00,25.8,25.0,00.0,34.8,27.6,07.3,0000.0,0011.28,0005.35,0004.75
2022-01-18 03:08:00,,0821.1,5.01,0.00,25.8,25.0,00.0,34.8,27.6,07.4,0000.0,0010.85,0005.34,0004.77
2022-01-18 03:09:00,,0821.1,4.99,0.00,25.8,25.0,00.0,34.8,27.6,07.4,0000.0,0010.58,0005.34,0004.80
2022-01-18 03:10:00,,0821.1,5.00,0.00,25.8,25.0,00.0,34.8,27.6,07.4,0000.0,0010.38,0005.31,0004.78
2022-01-18 03:11:00,,0821.1,5.01,0.00,25.8,25.0,00.0,34.8,27.6,07.4,0000.0,0010.47,0005.24,0004.73
2022-01-18 03:12:00,,0821.1,4.99,0.00,25.8,25.0,00.0,34.8,27.6,07.4,0000.0,0010.25,0005.12,0004.63
2022-01-18 03:13:00,,0821.1,5.02,0.00,25.8,25.0,00.0,34.8,27.6,07.4,0000.0,0010.12,0004.95,0004.49
2022-01-18 03:14:00,,0821.1,4.98,0.00,25.8,25.0,00.0,34.8,27.6,07.4,0000.0,0009.95,0004.81,0004.35
2022-01-18 03:15:00,,0821.1,5.01,0.00,25.8,25.0,00.0,34.8,27.6,07.3,0000.0,0010.09,0004.69,0004.25
2022-01-18 03:16:00,,0821.1,4.98,0.00,25.8,25.0,00.0,34.8,27.6,07.4,0000.0,0009.86,0004.60,0004.16
2022-01-18 03:17:00,,0821.1,5.01,0.00,25.8,25.0,00.0,34.8,27.6,07.4,0000.0,0010.32,0004.59,0004.14
2022-01-18 03:18:00,,0821.1,5.00,0.00,25.8,25.0,00.0,34.8,27.6,07.4,0000.0,0010.80,0004.53,0004.12
2022-01-18 03:19:00,,0821.0,4.99,0.00,25.8,25.0,00.0,34.8,27.6,07.4,0000.0,0011.86,0004.51,0004.09
2022-01-18 03:20:00,,0821.0,5.00,0.00,25.8,25.0,00.0,34.8,27.5,07.4,0000.0,0011.94,0004.49,0004.07
2022-01-18 03:21:00,,0821.0,5.01,0.00,25.7,24.9,00.0,34.8,27.6,07.4,0000.0,0011.60,0004.50,0004.06
2022-01-18 03:22:00,,0821.0,4.99,0.00,25.7,24.9,00.0,34.8,27.6,07.4,0000.0,0011.55,0004.53,0004.09
2022-01-18 03:23:00,,0821.0,5.01,0.00,25.7,24.9,00.0,34.8,27.6,07.4,0000.0,0012.22,0004.59,0004.12
2022-01-18 03:24:00,,0821.0,4.99,0.00,25.7,24.9,00.0,34.7,27.6,07.3,0000.0,0012.23,0004.65,0004.17
2022-01-18 03:25:00,,0821.0,5.00,0.00,25.7,24.9,00.0,34.7,27.6,07.3,0000.0,0012.08,0004.70,0004.22
2022-01-18 03:26:00,,0821.0,4.99,0.00,25.7,24.9,00.0,34.7,27.6,07.3,0000.0,0012.49,0004.70,0004.24
2022-01-18 03:27:00,,0821.0,5.00,0.00,25.7,24.9,00.0,34.7,27.6,07.3,0000.0,0012.53,0004.72,0004.26
2022-01-18 03:28:00,,0821.1,4.99,0.00,25.7,24.9,00.0,34.7,27.6,07.4,0000.0,0012.51,0004.70,0004.28
2022-01-18 03:29:00,,0821.0,5.00,0.00,25.7,24.9,00.0,34.7,27.6,07.3,0000.0,0012.22,0004.71,0004.30
2022-01-18 03:30:00,,0821.0,5.01,0.00,25.8,24.9,00.0,34.7,27.5,07.3,0000.0,0011.15,0004.72,0004.33
2022-01-18 03:31:00,,0821.0,4.99,0.00,25.8,24.9,00.0,34.7,27.5,07.4,0000.0,0011.42,0004.75,0004.36
2022-01-18 03:32:00,,0821.0,5.01,0.00,25.7,24.9,00.0,34.7,27.6,07.4,0000.0,0012.10,0004.75,0004.35
2022-01-18 03:33:00,,0821.0,5.00,0.00,25.8,24.9,00.0,34.7,27.6,07.4,0000.0,0011.77,0004.71,0004.30
2022-01-18 03:34:00,,0821.0,5.00,0.00,25.8,24.9,00.0,34.7,27.5,07.4,0000.0,0011.29,0004.64,0004.25
2022-01-18 03:35:00,,0821.0,5.00,0.00,25.8,24.9,00.0,34.7,27.5,07.4,0000.0,0011.22,0004.59,0004.21
2022-01-18 03:36:00,,0821.0,4.98,0.00,25.7,24.9,00.0,34.7,27.6,07.5,0000.0,0011.38,0004.57,0004.20
2022-01-18 03:37:00,,0821.0,5.01,0.00,25.8,24.9,00.0,34.7,27.6,07.7,0000.0,0010.71,0004.61,0004.22
2022-01-18 03:38:00,,0821.0,4.99,0.00,25.7,24.9,00.0,34.7,27.6,07.8,0000.0,0012.34,0004.68,0004.25
2022-01-18 03:39:00,,0821.0,5.02,0.00,25.7,24.9,00.0,34.7,27.5,07.8,0000.0,0011.92,0004.74,0004.29
2022-01-18 03:40:00,,0820.9,4.99,0.00,25.7,24.9,00.0,34.7,27.5,07.9,0000.0,0011.79,0004.81,0004.33
2022-01-18 03:41:00,,0821.0,5.01,0.00,25.7,24.9,00.0,34.7,27.5,07.9,0000.0,0012.60,0004.91,0004.36
2022-01-18 03:42:00,,0821.0,4.99,0.00,25.7,24.9,00.0,34.7,27.5,07.8,0000.0,0013.59,0004.97,0004.40
2022-01-18 03:43:00,,0821.0,5.00,0.00,25.7,24.9,00.0,34.7,27.5,07.8,0000.0,0013.26,0005.04,0004.43
2022-01-18 03:44:00,,0820.9,5.00,0.00,25.7,24.9,00.0,34.7,27.5,07.7,0000.0,0013.59,0005.09,0004.46
2022-01-18 03:45:00,,0821.0,4.99,0.00,25.7,24.9,00.0,34.7,27.5,07.7,0000.0,0013.42,0005.11,0004.48
2022-01-18 03:46:00,,0821.0,5.02,0.00,25.7,24.9,00.0,34.7,27.5,07.6,0000.0,0013.51,0005.13,0004.50
2022-01-18 03:47:00,,0821.0,4.99,0.00,25.7,24.9,00.0,34.7,27.5,07.6,0000.0,0013.51,0005.17,0004.50
2022-01-18 03:48:00,,0821.0,5.00,0.00,25.7,24.9,00.0,34.7,27.5,07.4,0000.0,0013.45,0005.16,0004.46
2022-01-18 03:49:00,,0821.0,5.00,0.00,25.7,24.9,00.0,34.7,27.5,07.4,0000.0,0011.65,0005.04,0004.37
2022-01-18 03:50:00,,0820.9,5.00,0.00,25.7,24.9,00.0,34.7,27.5,07.4,0000.0,0011.18,0004.95,0004.26
2022-01-18 03:51:00,,0821.0,4.99,0.00,25.7,24.9,00.0,34.7,27.5,07.4,0000.0,0010.99,0004.82,0004.16
2022-01-18 03:52:00,,0821.0,5.02,0.00,25.7,24.9,00.0,34.7,27.5,07.5,0000.0,0010.49,0004.70,0004.05
2022-01-18 03:53:00,,0820.9,4.98,0.00,25.7,24.9,00.0,34.7,27.5,07.6,0000.0,0009.29,0004.61,0003.96
2022-01-18 03:54:00,,0821.0,5.02,0.00,25.7,24.8,00.0,34.7,27.5,07.6,0000.0,0009.02,0004.49,0003.88
2022-01-18 03:55:00,,0820.9,5.00,0.00,25.7,24.8,00.0,34.7,27.5,07.6,0000.0,0008.85,0004.38,0003.81
2022-01-18 03:56:00,,0820.9,4.99,0.00,25.7,24.8,00.0,34.7,27.5,07.6,0000.0,0009.65,0004.33,0003.76
2022-01-18 03:57:00,,0820.9,5.01,0.00,25.7,24.8,00.0,34.7,27.5,07.8,0000.0,0009.76,0004.30,0003.72
2022-01-18 03:58:00,,0820.9,4.99,0.00,25.7,24.8,00.0,34.7,27.5,07.8,0000.0,0009.92,0004.29,0003.71
2022-01-18 03:59:00,,0820.9,5.01,0.00,25.7,24.8,00.0,34.7,27.4,08.1,0000.0,0010.08,0004.33,0003.73
